PBO Station Position Time Series. Reference Frame : NAM14
Format Version,1.1.1
4-character ID,P315
Station name,LeggettSchCN2005
Begin Date, 2005-06-25
End Date, 2023-06-26
Release Date, 2023-06-27
Reference position, 39.8635832019 North Latitude, -123.7168975793 East Longitude, 257.93515 meters elevation,
Date, North (mm), East (mm), Vertical (mm), North Std. Deviation (mm), East Std. Deviation (mm),              Vertical Std. Deviation (mm), Quality,
2005-06-25,0.00, 0.00, 0.00, 2.13, 1.63, 7.41, repro,
2005-06-26,-1.59, -0.75, -5.07, 2.20, 1.66, 7.56, repro,
2005-06-27,-0.37, -1.70, -4.23, 2.17, 1.62, 7.42, repro,
2005-06-28,-0.68, -0.76, -8.11, 2.15, 1.63, 7.42, repro,
2005-06-29,0.92, -1.45, -7.27, 2.13, 1.62, 7.40, repro,
2005-06-30,-0.07, -0.27, -1.42, 2.13, 1.61, 7.35, repro,
2005-07-01,0.55, -1.22, -3.77, 2.15, 1.62, 7.43, repro,
2005-07-02,-0.90, -1.37, 0.62, 2.13, 1.61, 7.34, repro,
2005-07-03,-1.65, -1.25, 4.20, 2.16, 1.64, 7.51, repro,
2005-07-04,-0.55, -2.84, -1.97, 2.16, 1.63, 7.46, repro,
2005-07-05,-1.82, -2.47, -0.42, 2.14, 1.62, 7.40, repro,
2005-07-06,-2.56, -1.04, 3.31, 2.14, 1.62, 7.41, repro,
2005-07-07,1.68, -1.99, -5.09, 2.23, 1.67, 7.59, repro,
2005-07-08,-0.29, -0.74, 3.47, 2.15, 1.64, 7.44, repro,
2005-07-09,-0.61, -0.85, 5.31, 2.15, 1.64, 7.47, repro,
2005-07-10,1.76, -0.23, -4.74, 2.20, 1.68, 7.61, repro,
2005-07-11,-0.20, -2.02, 2.69, 2.12, 1.61, 7.37, repro,
2005-07-12,-0.77, -1.13, -7.76, 2.13, 1.62, 7.39, repro,
2005-07-13,1.68, -0.87, -1.06, 2.13, 1.62, 7.39, repro,
2005-07-14,1.02, -0.30, 6.33, 2.16, 1.67, 7.56, repro,
2005-07-15,-1.47, -0.63, 8.22, 2.14, 1.63, 7.41, repro,
2005-07-16,0.22, -0.09, -0.25, 2.15, 1.62, 7.45, repro,
2005-07-17,-0.58, -0.15, 0.33, 2.15, 1.62, 7.45, repro,
2005-07-18,-0.45, 0.68, 1.84, 2.14, 1.62, 7.43, repro,
2005-07-19,-0.34, -0.31, -3.09, 2.14, 1.63, 7.41, repro,
2005-07-20,0.49, -0.68, -2.21, 2.13, 1.64, 7.41, repro,
2005-07-21,-0.02, -0.16, 1.68, 2.15, 1.63, 7.41, repro,
2005-07-22,0.34, -0.23, -3.07, 2.13, 1.63, 7.42, repro,
2005-07-23,-1.48, -1.09, -2.69, 2.16, 1.65, 7.55, repro,
2005-07-24,1.11, -1.10, 3.62, 2.16, 1.65, 7.54, repro,
2005-07-25,1.53, 0.85, 4.90, 2.17, 1.66, 7.60, repro,
2005-07-26,1.00, -0.26, 3.01, 2.19, 1.71, 7.74, repro,
2005-07-27,0.25, 0.93, -2.98, 2.21, 1.73, 7.81, repro,
2005-07-28,-0.19, -0.50, 2.14, 2.25, 1.78, 8.04, repro,
2005-07-29,-0.11, -0.17, -2.28, 2.19, 1.67, 7.66, repro,
2005-07-30,0.51, 0.21, -1.13, 2.17, 1.66, 7.63, repro,
2005-07-31,0.91, 0.16, -6.59, 2.18, 1.66, 7.68, repro,
2005-08-01,-1.33, 0.04, -6.77, 2.17, 1.67, 7.67, repro,
2005-08-02,-2.04, -0.15, 6.01, 2.16, 1.66, 7.64, repro,
2005-08-03,0.17, 0.78, -3.04, 2.15, 1.62, 7.43, repro,
2005-08-04,0.23, 0.06, 2.12, 2.15, 1.63, 7.47, repro,
2005-08-05,-0.59, 0.59, -8.66, 2.18, 1.68, 7.67, repro,
2005-08-06,-0.66, 1.07, -0.06, 2.16, 1.69, 7.57, repro,
2005-08-07,0.45, 1.29, -9.71, 2.12, 1.61, 7.35, repro,
2005-08-08,0.08, 2.40, -0.38, 2.13, 1.62, 7.40, repro,
2005-08-09,-0.77, -1.59, 2.75, 2.24, 1.73, 7.84, repro,
2005-08-10,0.70, 0.11, -3.81, 2.16, 1.64, 7.49, repro,
2005-08-11,1.85, -0.17, -2.05, 2.24, 1.76, 7.86, repro,
2005-08-12,-0.04, 0.00, -2.53, 2.18, 1.70, 7.66, repro,
2005-08-13,1.35, -0.17, -0.08, 2.13, 1.61, 7.38, repro,
2005-08-14,-0.54, 0.21, -0.43, 2.35, 1.79, 7.93, repro,
2005-08-15,-0.29, -0.74, -0.55, 2.20, 1.69, 7.68, repro,
2005-08-16,-0.35, 0.56, -0.33, 2.21, 1.70, 7.66, repro,
2005-08-17,-0.83, 0.58, 0.63, 2.18, 1.68, 7.63, repro,
2005-08-18,2.03, 0.16, -6.86, 2.13, 1.62, 7.38, repro,
2005-08-19,1.66, 1.03, 4.23, 2.14, 1.62, 7.38, repro,
2005-08-20,0.99, 0.53, -1.55, 2.14, 1.63, 7.43, repro,
2005-08-21,-0.12, 0.79, 0.41, 2.18, 1.64, 7.54, repro,
2005-08-22,-0.76, 1.02, -1.07, 2.17, 1.64, 7.55, repro,
2005-08-23,1.80, -1.05, 0.94, 2.18, 1.64, 7.51, repro,
2005-08-24,1.66, -1.42, -5.59, 2.15, 1.63, 7.44, repro,
2005-08-25,-0.20, -0.44, 0.38, 2.19, 1.68, 7.59, repro,
2005-08-26,-0.36, -0.34, -4.32, 2.16, 1.63, 7.46, repro,
2005-08-27,2.04, 0.76, -2.14, 2.16, 1.64, 7.48, repro,
2005-08-28,-0.29, 1.16, -3.69, 2.15, 1.62, 7.42, repro,
2005-08-29,-0.53, 1.57, -2.79, 2.19, 1.68, 7.58, repro,
2005-08-30,-0.85, -1.53, 10.53, 2.13, 1.62, 7.37, repro,
2005-08-31,0.13, 0.65, -4.15, 2.18, 1.69, 7.58, repro,
2005-09-01,-0.48, -0.34, 2.50, 2.14, 1.64, 7.42, repro,
2005-09-02,0.32, -0.23, 3.30, 2.15, 1.64, 7.41, repro,
2005-09-03,0.38, -0.04, -3.59, 2.15, 1.63, 7.40, repro,
2005-09-04,0.43, 0.22, 1.63, 2.21, 1.69, 7.63, repro,
2005-09-05,-0.17, 0.47, -2.54, 2.14, 1.63, 7.42, repro,
2005-09-06,-1.26, -0.85, -0.98, 2.14, 1.63, 7.42, repro,
2005-09-07,-1.33, -0.49, 1.75, 2.22, 1.64, 7.55, repro,
2005-09-08,0.18, -0.36, -7.90, 2.20, 1.65, 7.52, repro,
2005-09-09,-0.80, 0.69, -0.22, 2.22, 1.66, 7.63, repro,
2005-09-10,2.72, 2.27, -5.96, 2.20, 1.65, 7.55, repro,
2005-09-11,-1.07, -0.74, 4.99, 2.22, 1.66, 7.60, repro,
2005-09-12,-0.15, 0.93, -4.66, 2.23, 1.64, 7.58, repro,
2005-09-13,0.07, 1.62, -2.75, 2.32, 1.73, 7.98, repro,
2005-09-14,0.57, 0.87, 1.62, 2.24, 1.69, 7.71, repro,
2005-09-15,0.55, 1.15, -0.04, 2.25, 1.69, 7.76, repro,
2005-09-16,-0.93, -0.28, 4.21, 2.25, 1.68, 7.70, repro,
2005-09-17,-0.99, -0.17, -0.87, 2.17, 1.67, 7.63, repro,
2005-09-18,-0.15, -0.00, -5.43, 2.20, 1.66, 7.50, repro,
2005-09-19,-0.04, 0.48, 1.95, 2.21, 1.65, 7.64, repro,
2005-09-20,0.28, 1.56, -2.84, 2.14, 1.63, 7.44, repro,
2005-09-21,0.37, -0.82, 2.56, 2.18, 1.70, 7.71, repro,
2005-09-22,-0.75, 0.93, -8.43, 2.14, 1.63, 7.40, repro,
2005-09-23,1.59, -1.49, -3.36, 2.16, 1.63, 7.44, repro,
2005-09-24,3.40, -1.27, -1.97, 2.16, 1.66, 7.52, repro,
2005-09-25,-1.25, 0.13, 7.80, 2.16, 1.66, 7.53, repro,
2005-09-26,-1.46, 0.84, 2.31, 2.22, 1.70, 7.67, repro,
2005-09-27,-0.11, -0.40, 1.37, 2.17, 1.67, 7.58, repro,
2005-09-28,-0.56, -0.55, 8.19, 2.24, 1.66, 7.57, repro,
2005-09-29,0.24, -1.68, 3.22, 2.22, 1.65, 7.54, repro,
2005-09-30,-0.93, -0.78, 10.59, 2.14, 1.63, 7.42, repro,
2005-10-01,-1.28, 0.21, 1.60, 2.20, 1.67, 7.52, repro,
2005-10-02,-1.70, 0.07, 0.82, 2.21, 1.71, 7.61, repro,
2005-10-03,-0.72, -0.41, 5.43, 2.16, 1.65, 7.53, repro,
2005-10-04,-0.74, -0.89, 5.21, 2.20, 1.64, 7.52, repro,
2005-10-05,-0.82, -0.69, -3.01, 2.21, 1.65, 7.63, repro,
2005-10-06,-0.98, -1.95, 2.89, 2.19, 1.69, 7.55, repro,
2005-10-07,-0.60, -1.30, 7.90, 2.14, 1.61, 7.36, repro,
2005-10-08,-1.49, -2.76, 9.07, 2.15, 1.62, 7.42, repro,
2005-10-09,-2.31, -1.87, 4.05, 2.15, 1.61, 7.33, repro,
2005-10-10,-1.14, -1.87, 4.10, 2.15, 1.62, 7.39, repro,
2005-10-11,0.84, -1.95, 6.99, 2.19, 1.67, 7.59, repro,
2005-10-12,-0.76, -0.79, -0.98, 2.18, 1.66, 7.56, repro,
2005-10-13,-0.56, -1.17, 6.46, 2.17, 1.66, 7.53, repro,
2005-10-14,-0.11, -0.00, 2.45, 2.15, 1.62, 7.39, repro,
2005-10-15,-0.43, 0.48, -7.04, 2.17, 1.64, 7.49, repro,
2005-10-16,4.23, -0.81, 10.73, 2.17, 1.63, 7.41, repro,
2005-10-17,-0.83, -1.78, 13.74, 2.15, 1.62, 7.35, repro,
2005-10-18,0.45, -0.36, 3.66, 2.30, 1.76, 7.99, repro,
2005-10-19,-1.34, -0.37, 3.83, 2.23, 1.69, 7.77, repro,
2005-10-20,-0.36, 0.17, 6.74, 2.28, 1.68, 7.70, repro,
2005-10-21,0.67, -0.65, 5.70, 2.28, 1.73, 7.95, repro,
2005-10-22,0.79, -1.07, 2.81, 2.14, 1.66, 7.49, repro,
2005-10-23,0.03, -0.59, 6.24, 2.18, 1.65, 7.51, repro,
2005-10-24,-1.07, 0.03, -1.90, 2.15, 1.61, 7.35, repro,
2005-10-25,0.09, -1.38, 2.84, 2.17, 1.67, 7.53, repro,
2005-10-26,-0.98, -0.11, 9.65, 2.25, 1.72, 7.81, repro,
2005-10-27,-0.09, 0.43, -0.90, 2.17, 1.65, 7.52, repro,
2005-10-28,-0.52, -1.43, -0.50, 2.14, 1.62, 7.36, repro,
2005-10-29,-0.64, -0.50, 5.36, 2.17, 1.67, 7.62, repro,
2005-10-30,0.97, 0.94, -0.56, 2.17, 1.63, 7.40, repro,
2005-10-31,-0.20, 0.28, -8.71, 2.27, 1.73, 7.82, repro,
2005-11-01,1.25, -0.06, 2.83, 2.36, 1.84, 8.18, repro,
2005-11-02,-0.61, -0.82, 6.29, 2.33, 1.86, 8.15, repro,
2005-11-03,-0.27, -1.47, 4.77, 2.19, 1.70, 7.55, repro,
2005-11-04,-0.11, -1.07, 2.16, 2.28, 1.79, 7.95, repro,
2005-11-05,1.05, 1.05, 1.70, 2.28, 1.81, 7.99, repro,
2005-11-06,-0.85, -0.71, 3.43, 2.27, 1.82, 8.00, repro,
2005-11-07,-0.65, -0.56, -4.04, 2.24, 1.75, 7.78, repro,
2005-11-08,-0.46, -0.64, -4.83, 2.27, 1.80, 8.00, repro,
2005-11-09,1.09, 1.17, -2.21, 2.32, 1.85, 8.16, repro,
2005-11-10,-0.50, -0.08, 4.87, 2.43, 1.89, 8.47, repro,
2005-11-11,0.72, -2.21, 6.16, 2.49, 1.92, 8.61, repro,
2005-11-12,0.53, 0.64, -0.47, 2.17, 1.72, 7.55, repro,
2005-11-13,1.42, 2.27, -9.35, 2.34, 1.82, 8.10, repro,
2005-11-14,3.44, -0.66, -5.19, 2.19, 1.70, 7.65, repro,
2005-11-15,1.74, 0.08, -8.72, 2.15, 1.63, 7.49, repro,
2005-11-16,0.94, 0.13, -9.98, 2.21, 1.69, 7.67, repro,
2005-11-17,-0.25, 0.04, -6.16, 2.11, 1.61, 7.33, repro,
2005-11-18,0.31, 0.21, -7.86, 2.12, 1.61, 7.35, repro,
2005-11-19,0.49, 0.10, -3.65, 2.15, 1.63, 7.44, repro,
2005-11-20,0.34, -0.31, -0.54, 2.18, 1.67, 7.61, repro,
2005-11-21,0.46, -0.56, 1.30, 2.26, 1.70, 7.81, repro,
2005-11-22,-1.41, 0.34, 0.27, 2.24, 1.72, 7.80, repro,
2005-11-23,0.13, -0.25, 1.20, 2.16, 1.65, 7.55, repro,
2005-11-24,-0.82, -0.12, 0.03, 2.15, 1.65, 7.51, repro,
2005-11-25,0.53, -0.81, 1.20, 2.19, 1.66, 7.65, repro,
2005-11-26,1.41, 1.44, 0.28, 2.28, 1.79, 8.06, repro,
2005-11-27,-1.31, 0.58, -0.73, 2.18, 1.68, 7.61, repro,
2005-11-28,-0.53, 0.81, -3.78, 2.23, 1.73, 7.85, repro,
2005-11-29,-0.92, -2.12, -4.90, 2.17, 1.66, 7.52, repro,
2005-11-30,0.09, 0.98, -5.00, 2.21, 1.69, 7.64, repro,
2005-12-01,0.27, 0.07, -1.12, 2.18, 1.68, 7.59, repro,
2005-12-02,-0.37, 0.64, -9.03, 2.16, 1.64, 7.43, repro,
2005-12-03,0.30, 0.89, -9.77, 2.13, 1.63, 7.36, repro,
2005-12-04,0.07, 0.33, -10.25, 2.15, 1.60, 7.33, repro,
2005-12-05,0.47, 1.37, -13.67, 2.15, 1.65, 7.40, repro,
2005-12-06,0.32, 0.89, -9.50, 2.24, 1.66, 7.63, repro,
2005-12-07,0.42, 1.30, -7.66, 2.21, 1.70, 7.68, repro,
2005-12-08,-2.26, 0.68, -6.15, 2.20, 1.69, 7.63, repro,
2005-12-09,0.56, 0.63, -8.90, 2.17, 1.63, 7.41, repro,
2005-12-10,-0.47, 0.32, -4.68, 2.14, 1.61, 7.31, repro,
2005-12-11,0.04, 1.10, -7.70, 2.15, 1.62, 7.38, repro,
2005-12-12,0.08, 1.12, -6.16, 2.15, 1.64, 7.39, repro,
2005-12-13,0.43, 0.99, -7.09, 2.12, 1.61, 7.32, repro,
2005-12-14,-0.17, -0.27, -8.58, 2.15, 1.63, 7.40, repro,
2005-12-15,-0.16, -0.35, -13.21, 2.25, 1.69, 7.74, repro,
2005-12-16,0.34, -0.38, -6.05, 2.18, 1.65, 7.53, repro,
2005-12-17,-0.61, 0.21, -14.48, 2.20, 1.71, 7.56, repro,
2005-12-18,0.26, -1.18, -4.47, 2.15, 1.70, 7.45, repro,
2005-12-19,-0.96, 0.15, -4.80, 2.22, 1.77, 7.67, repro,
2005-12-20,-0.31, -0.98, -15.65, 2.22, 1.76, 7.68, repro,
2005-12-21,-1.51, 1.91, -3.13, 2.19, 1.74, 7.53, repro,
2005-12-22,1.21, -0.03, -12.70, 2.20, 1.77, 7.61, repro,
2005-12-23,1.51, 1.12, -3.51, 2.26, 1.80, 7.87, repro,
2005-12-24,0.33, 0.05, -3.99, 2.33, 1.92, 8.28, repro,
2005-12-25,-2.37, 0.89, -4.53, 2.20, 1.73, 7.65, repro,
2005-12-26,-2.90, -0.58, -0.19, 2.20, 1.68, 7.46, repro,
2005-12-27,1.23, 0.46, -8.54, 2.20, 1.74, 7.59, repro,
2005-12-28,-1.94, 0.01, -15.59, 2.19, 1.69, 7.49, repro,
2005-12-29,1.06, 1.62, -6.69, 2.31, 1.84, 8.02, repro,
2005-12-30,1.01, 0.76, 0.19, 2.29, 1.85, 8.00, repro,
2005-12-31,-1.82, 1.46, 2.08, 2.28, 1.81, 7.93, repro,
2006-01-01,1.47, 2.64, 4.24, 2.26, 1.78, 7.79, repro,
2006-01-02,1.95, -1.21, -8.69, 2.22, 1.73, 7.49, repro,
2006-01-03,-0.14, 2.34, -14.17, 2.38, 1.97, 8.25, repro,
2006-01-04,0.03, 1.83, -8.83, 2.28, 1.87, 7.87, repro,
2006-01-05,0.75, 2.24, -14.88, 2.25, 1.79, 7.80, repro,
2006-01-06,-0.23, 0.23, -9.32, 2.33, 1.87, 8.12, repro,
2006-01-07,-0.96, -0.86, -9.88, 2.18, 1.67, 7.43, repro,
2006-01-08,1.44, 1.88, -6.15, 2.23, 1.79, 7.72, repro,
2006-01-09,1.45, 1.92, -3.06, 2.30, 1.83, 7.98, repro,
2006-01-10,1.73, 2.13, -10.24, 2.29, 1.83, 7.97, repro,
2006-01-11,1.42, 0.36, -2.67, 2.26, 1.79, 7.83, repro,
2006-01-12,-0.29, 0.77, -5.18, 2.20, 1.72, 7.52, repro,
2006-01-13,-0.24, 1.10, 2.23, 2.33, 1.89, 8.20, repro,
2006-01-14,2.70, 1.33, -8.69, 2.20, 1.73, 7.58, repro,
2006-01-15,1.85, 0.38, -4.63, 2.23, 1.74, 7.75, repro,
2006-01-16,0.09, 2.10, -5.99, 2.21, 1.77, 7.67, repro,
2006-01-17,0.01, -0.16, -8.39, 2.21, 1.71, 7.55, repro,
2006-01-18,-0.88, 0.12, 3.66, 2.18, 1.67, 7.48, repro,
2006-01-19,1.73, 1.19, -11.86, 2.25, 1.74, 7.72, repro,
2006-01-20,1.00, 2.42, -11.48, 2.19, 1.65, 7.55, repro,
2006-01-21,0.98, 2.34, -8.76, 2.17, 1.63, 7.37, repro,
2006-01-22,-1.57, -1.68, -8.05, 2.14, 1.62, 7.24, repro,
2006-01-23,1.03, 2.16, -8.36, 2.17, 1.62, 7.32, repro,
2006-01-24,2.15, 2.26, -15.63, 2.20, 1.66, 7.47, repro,
2006-01-25,1.87, 1.84, -15.30, 2.10, 1.59, 7.19, repro,
2006-01-26,0.87, 1.27, -8.41, 2.09, 1.58, 7.13, repro,
2006-01-27,1.77, 1.75, -8.18, 2.11, 1.58, 7.19, repro,
2006-01-28,-0.21, 0.59, -11.04, 2.12, 1.58, 7.21, repro,
2006-01-29,-0.10, 1.26, -10.40, 2.09, 1.58, 7.17, repro,
2006-01-30,0.61, 1.51, -3.88, 2.11, 1.61, 7.31, repro,
2006-01-31,0.65, 2.00, -6.86, 2.10, 1.58, 7.21, repro,
2006-02-01,-0.37, -0.09, 0.72, 2.14, 1.60, 7.34, repro,
2006-02-02,-1.31, -0.24, -2.83, 2.11, 1.57, 7.24, repro,
2006-02-03,0.42, 1.25, -1.46, 2.13, 1.59, 7.28, repro,
2006-02-04,0.37, -0.55, -1.22, 2.12, 1.58, 7.30, repro,
2006-02-05,0.43, 1.74, -11.52, 2.11, 1.57, 7.23, repro,
2006-02-06,0.37, 1.36, -12.26, 2.10, 1.57, 7.20, repro,
2006-02-07,-0.03, 0.75, -11.57, 2.11, 1.57, 7.29, repro,
2006-02-08,-0.43, 1.46, -10.31, 2.11, 1.57, 7.28, repro,
2006-02-09,0.57, 1.27, -11.24, 2.18, 1.59, 7.43, repro,
2006-02-10,1.12, 1.48, -14.37, 2.26, 1.62, 7.54, repro,
2006-02-11,1.28, 2.53, -15.54, 2.12, 1.58, 7.33, repro,
2006-02-12,1.54, 0.52, -14.10, 2.12, 1.57, 7.27, repro,
2006-02-13,-1.33, 1.12, -6.75, 2.13, 1.56, 7.31, repro,
2006-02-14,-0.78, 3.09, -3.16, 2.13, 1.56, 7.31, repro,
2006-02-15,-1.06, 0.88, -4.70, 2.11, 1.56, 7.28, repro,
2006-02-16,0.00, 1.84, -9.82, 2.10, 1.56, 7.23, repro,
2006-02-17,0.06, 1.17, -7.67, 2.12, 1.57, 7.31, repro,
2006-02-18,0.60, 0.84, -6.33, 2.12, 1.57, 7.26, repro,
2006-02-19,0.06, 1.54, -6.57, 2.14, 1.57, 7.32, repro,
2006-02-20,-0.89, 0.68, -2.19, 2.13, 1.57, 7.31, repro,
2006-02-21,-0.93, 1.68, -12.02, 2.12, 1.57, 7.32, repro,
2006-02-22,1.09, 1.40, 1.46, 2.16, 1.60, 7.49, repro,
2006-02-23,-0.40, -0.07, 0.21, 2.12, 1.57, 7.30, repro,
2006-02-24,-0.46, 0.77, -6.95, 2.14, 1.58, 7.40, repro,
2006-02-25,-0.85, 1.96, -9.86, 2.17, 1.64, 7.53, repro,
2006-02-26,-0.58, 0.68, -2.14, 2.14, 1.59, 7.39, repro,
2006-02-27,-1.22, 2.66, 6.44, 2.13, 1.59, 7.38, repro,
2006-02-28,-1.44, 1.25, 0.58, 2.18, 1.60, 7.48, repro,
2006-03-01,-0.19, 2.24, -3.47, 2.19, 1.63, 7.49, repro,
2006-03-02,-0.44, 0.96, -8.66, 2.14, 1.59, 7.41, repro,
2006-03-03,-0.94, 1.90, -4.71, 2.22, 1.61, 7.69, repro,
2006-03-04,-0.24, 3.03, -12.60, 2.21, 1.65, 7.64, repro,
2006-03-05,-1.42, 2.10, -3.49, 2.09, 1.58, 7.26, repro,
2006-03-06,0.24, 2.56, -6.10, 2.09, 1.57, 7.26, repro,
2006-03-07,2.15, 1.70, -5.03, 2.14, 1.59, 7.44, repro,
2006-03-08,0.92, 2.95, -10.61, 2.14, 1.60, 7.48, repro,
2006-03-09,1.35, 2.15, -0.87, 2.14, 1.61, 7.47, repro,
2006-03-10,0.46, 2.08, -9.73, 2.10, 1.59, 7.31, repro,
2006-03-11,0.61, 1.58, 0.17, 2.15, 1.60, 7.49, repro,
2006-03-12,-0.45, 0.66, -4.57, 2.14, 1.59, 7.39, repro,
2006-03-13,0.22, 2.40, -10.78, 2.17, 1.60, 7.46, repro,
2006-03-14,-1.87, 2.60, 0.61, 2.16, 1.62, 7.51, repro,
2006-03-15,1.20, 3.05, -9.61, 2.17, 1.62, 7.50, repro,
2006-03-16,0.17, 0.65, -8.68, 2.23, 1.65, 7.66, repro,
2006-03-17,-0.64, 1.15, -11.51, 2.21, 1.64, 7.63, repro,
2006-03-18,7.26, 2.14, -9.72, 2.17, 1.62, 7.50, repro,
2006-03-19,2.24, 0.81, -6.56, 2.14, 1.64, 7.57, repro,
2006-03-20,-0.85, 1.13, -9.41, 2.13, 1.63, 7.49, repro,
2006-03-21,-0.63, 1.54, -6.41, 2.18, 1.66, 7.65, repro,
2006-03-22,1.16, 2.34, -13.32, 2.13, 1.62, 7.46, repro,
2006-03-23,-0.84, 1.93, -13.64, 2.21, 1.65, 7.61, repro,
2006-03-24,-0.27, -0.10, -11.92, 2.20, 1.64, 7.55, repro,
2006-03-25,-2.59, -0.54, 1.12, 2.19, 1.66, 7.58, repro,
2006-03-26,-0.28, 2.04, -2.48, 2.20, 1.66, 7.58, repro,
2006-03-27,0.82, 1.12, 0.32, 2.20, 1.68, 7.66, repro,
2006-03-28,-0.99, 1.66, 0.39, 2.13, 1.62, 7.36, repro,
2006-03-29,-0.26, 1.02, -3.07, 2.07, 1.60, 7.31, repro,
2006-03-30,0.35, 1.01, -2.63, 2.06, 1.60, 7.27, repro,
2006-03-31,0.16, 1.30, -2.00, 2.07, 1.62, 7.34, repro,
2006-04-01,0.32, 1.31, -3.25, 2.05, 1.59, 7.20, repro,
2006-04-02,1.77, 1.84, -12.89, 2.07, 1.59, 7.25, repro,
2006-04-03,-0.52, 1.41, -5.84, 2.07, 1.60, 7.31, repro,
2006-04-04,0.77, -0.07, -6.11, 2.08, 1.66, 7.41, repro,
2006-04-05,-0.10, -0.23, 3.75, 2.07, 1.60, 7.30, repro,
2006-04-06,0.66, 0.77, -6.04, 2.10, 1.64, 7.48, repro,
2006-04-07,-0.07, 2.52, -4.63, 2.16, 1.64, 7.54, repro,
2006-04-08,1.06, 1.63, -7.03, 2.20, 1.65, 7.66, repro,
2006-04-09,0.49, 0.73, -9.48, 2.07, 1.60, 7.29, repro,
2006-04-10,-0.21, -0.12, -6.15, 2.11, 1.66, 7.61, repro,
2006-04-11,0.32, -0.03, -1.70, 2.13, 1.65, 7.62, repro,
2006-04-12,0.49, -0.09, -1.40, 2.12, 1.65, 7.57, repro,
2006-04-13,0.06, 1.44, -7.10, 2.07, 1.59, 7.29, repro,
2006-04-14,0.32, 0.89, -1.78, 2.06, 1.59, 7.30, repro,
2006-04-15,-0.32, 2.33, -3.55, 2.14, 1.65, 7.56, repro,
2006-04-16,0.81, 1.67, -1.18, 2.07, 1.61, 7.36, repro,
2006-04-17,1.24, 0.92, -0.54, 2.06, 1.61, 7.39, repro,
2006-04-18,1.20, 1.32, -6.04, 2.05, 1.59, 7.24, repro,
2006-04-19,0.77, 2.20, -11.85, 2.07, 1.59, 7.28, repro,
2006-04-20,0.18, 1.68, -4.48, 2.09, 1.63, 7.47, repro,
2006-04-21,0.92, 0.89, -5.94, 2.06, 1.61, 7.36, repro,
2006-04-22,0.36, 0.91, -4.42, 2.07, 1.60, 7.34, repro,
2006-04-23,0.57, 0.89, -4.82, 2.14, 1.70, 7.61, repro,
2006-04-24,0.25, 1.99, -8.67, 2.09, 1.63, 7.44, repro,
2006-04-25,-1.08, 1.58, -10.16, 2.10, 1.64, 7.51, repro,
2006-04-26,1.79, 0.48, -2.82, 2.12, 1.64, 7.53, repro,
2006-04-27,-1.01, 0.53, -3.86, 2.17, 1.66, 7.59, repro,
2006-04-28,0.57, 2.35, -10.32, 2.13, 1.61, 7.43, repro,
2006-04-29,1.26, 0.81, -6.74, 2.06, 1.61, 7.37, repro,
2006-04-30,0.80, 2.03, -11.54, 2.06, 1.59, 7.31, repro,
2006-05-01,0.21, -0.32, -9.82, 2.06, 1.59, 7.34, repro,
2006-05-02,-0.37, 0.19, -11.47, 2.07, 1.59, 7.34, repro,
2006-05-03,0.05, 0.56, -3.10, 2.08, 1.61, 7.41, repro,
2006-05-04,0.44, 1.10, -7.51, 2.07, 1.64, 7.51, repro,
2006-05-05,0.02, 1.91, -7.01, 2.11, 1.68, 7.56, repro,
2006-05-06,1.07, 0.61, -3.04, 2.06, 1.58, 7.28, repro,
2006-05-07,0.81, -0.38, -2.27, 2.07, 1.59, 7.36, repro,
2006-05-08,-1.02, 0.88, -9.46, 2.06, 1.61, 7.37, repro,
2006-05-09,0.55, 0.27, -4.22, 2.12, 1.64, 7.48, repro,
2006-05-10,0.84, 0.37, -0.19, 2.07, 1.60, 7.36, repro,
2006-05-11,-0.58, 1.11, -5.65, 2.07, 1.60, 7.38, repro,
2006-05-12,1.06, -0.31, -6.58, 2.06, 1.58, 7.32, repro,
2006-05-13,0.64, 0.24, -6.85, 2.06, 1.60, 7.38, repro,
2006-05-14,0.15, -0.84, -8.98, 2.06, 1.60, 7.35, repro,
2006-05-15,0.28, 0.43, -6.89, 2.05, 1.60, 7.34, repro,
2006-05-16,0.59, 1.34, -4.35, 2.11, 1.64, 7.62, repro,
2006-05-17,0.15, 0.94, -1.24, 2.09, 1.63, 7.48, repro,
2006-05-18,-0.19, -0.10, -4.99, 2.07, 1.60, 7.37, repro,
2006-05-19,0.25, -0.07, -1.30, 2.13, 1.62, 7.47, repro,
2006-05-20,2.32, 1.25, -2.21, 2.12, 1.65, 7.52, repro,
2006-05-21,-0.70, 0.08, 4.83, 2.15, 1.65, 7.58, repro,
2006-05-22,0.55, 0.30, 1.06, 2.15, 1.68, 7.63, repro,
2006-05-23,-0.19, 0.17, 7.19, 2.12, 1.62, 7.42, repro,
2006-05-24,-0.62, 1.37, -6.12, 2.11, 1.64, 7.46, repro,
2006-05-25,1.15, 0.87, -3.66, 2.25, 1.73, 7.97, repro,
2006-05-26,-0.44, 0.24, -2.61, 2.18, 1.67, 7.67, repro,
2006-05-27,1.48, 1.48, -2.68, 2.20, 1.72, 7.76, repro,
2006-05-28,-1.25, 0.05, 7.75, 2.13, 1.63, 7.49, repro,
2006-05-29,-0.19, 1.40, 0.03, 2.20, 1.72, 7.76, repro,
2006-05-30,0.71, 0.52, -3.43, 2.17, 1.67, 7.63, repro,
2006-05-31,-0.10, 0.49, -2.17, 2.16, 1.66, 7.55, repro,
2006-06-01,-0.04, 0.73, -7.82, 2.16, 1.67, 7.67, repro,
2006-06-02,-0.81, 1.21, -0.94, 2.32, 1.81, 8.29, repro,
2006-06-03,-0.72, 2.15, 2.85, 2.24, 1.70, 7.90, repro,
2006-06-04,-0.71, 1.32, -3.83, 2.17, 1.66, 7.62, repro,
2006-06-05,-1.32, 0.42, 3.13, 2.18, 1.66, 7.65, repro,
2006-06-06,-0.36, 1.06, 1.00, 2.19, 1.67, 7.65, repro,
2006-06-07,-1.62, -0.24, 0.84, 2.20, 1.67, 7.71, repro,
2006-06-08,-2.27, -0.33, 0.42, 2.13, 1.63, 7.48, repro,
2006-06-09,-3.02, 0.01, -0.24, 2.19, 1.68, 7.73, repro,
2006-06-10,-0.60, -0.78, -0.09, 2.12, 1.63, 7.47, repro,
2006-06-11,-1.48, 1.41, -0.39, 2.14, 1.63, 7.45, repro,
2006-06-12,0.70, 0.28, 4.47, 2.21, 1.72, 7.77, repro,
2006-06-13,1.19, 1.90, -1.48, 2.19, 1.67, 7.63, repro,
2006-06-14,-2.32, 1.83, 0.99, 2.13, 1.63, 7.50, repro,
2006-06-15,-1.74, 2.05, 3.97, 2.13, 1.64, 7.55, repro,
2006-06-16,-1.39, 0.10, 0.81, 2.11, 1.61, 7.39, repro,
2006-06-17,0.75, -1.48, 2.34, 2.15, 1.68, 7.60, repro,
2006-06-18,-0.82, -2.16, 5.41, 2.15, 1.68, 7.68, repro,
2006-06-19,-0.60, 1.32, 1.64, 2.16, 1.68, 7.76, repro,
2006-06-20,-2.26, 0.39, 6.33, 2.15, 1.67, 7.71, repro,
2006-06-21,-0.53, -0.40, 4.44, 2.16, 1.72, 7.85, repro,
2006-06-22,-1.49, -2.82, 2.86, 2.14, 1.66, 7.63, repro,
2006-06-23,0.83, -0.43, -5.86, 2.14, 1.66, 7.64, repro,
2006-06-24,1.07, 1.63, -4.24, 2.16, 1.68, 7.74, repro,
2006-06-25,-0.55, 0.87, -5.87, 2.23, 1.76, 8.01, repro,
2006-06-26,-0.18, 0.77, 0.78, 2.13, 1.68, 7.70, repro,
2006-06-27,-1.69, 0.64, 7.25, 2.22, 1.77, 8.02, repro,
2006-06-28,-1.59, -0.40, -1.31, 2.22, 1.70, 8.01, repro,
2006-06-29,0.53, 1.82, 3.46, 2.10, 1.63, 7.56, repro,
2006-06-30,-0.16, 0.98, 2.93, 2.11, 1.63, 7.55, repro,
2006-07-01,-0.34, 0.86, 0.64, 2.13, 1.65, 7.65, repro,
2006-07-02,-1.77, 0.06, -3.11, 2.16, 1.70, 7.86, repro,
2006-07-03,-0.84, 0.05, -2.95, 2.16, 1.70, 7.73, repro,
2006-07-04,-0.10, 0.92, -6.12, 2.11, 1.63, 7.56, repro,
2006-07-05,-0.25, 0.32, -5.68, 2.11, 1.63, 7.51, repro,
2006-07-06,-0.64, 1.22, -12.22, 2.13, 1.65, 7.64, repro,
2006-07-07,0.15, 0.63, -8.27, 2.14, 1.65, 7.73, repro,
2006-07-08,-0.01, -0.83, -5.90, 2.12, 1.65, 7.67, repro,
2006-07-09,-1.80, -0.45, -4.09, 2.12, 1.63, 7.59, repro,
2006-07-10,-1.57, -0.98, -2.25, 2.11, 1.63, 7.58, repro,
2006-07-11,-0.30, -0.18, -2.42, 2.12, 1.65, 7.66, repro,
2006-07-12,-0.55, 0.53, -2.28, 2.19, 1.74, 7.99, repro,
2006-07-13,0.35, 2.29, 3.02, 2.13, 1.65, 7.69, repro,
2006-07-14,0.66, 1.32, 2.95, 2.09, 1.63, 7.55, repro,
2006-07-15,1.05, -1.43, -2.14, 2.12, 1.65, 7.73, repro,
2006-07-16,-0.95, -0.16, 0.08, 2.11, 1.64, 7.66, repro,
2006-07-17,0.54, -1.05, -7.45, 2.14, 1.68, 7.87, repro,
2006-07-18,-0.17, 1.65, 2.56, 2.12, 1.69, 7.67, repro,
2006-07-19,-0.26, 0.71, 6.16, 2.07, 1.61, 7.41, repro,
2006-07-20,0.72, -0.25, 4.20, 2.06, 1.60, 7.43, repro,
2006-07-21,-0.68, 0.88, -0.48, 2.05, 1.60, 7.39, repro,
2006-07-22,-0.45, 0.49, -4.33, 2.05, 1.60, 7.36, repro,
2006-07-23,-0.57, 1.69, 4.86, 2.07, 1.60, 7.37, repro,
2006-07-24,-1.32, -0.25, 12.33, 2.06, 1.61, 7.39, repro,
2006-07-25,-1.10, -0.33, 4.00, 2.07, 1.61, 7.43, repro,
2006-07-26,0.68, 0.74, 13.79, 2.05, 1.60, 7.35, repro,
2006-07-27,-1.70, 0.52, -0.15, 2.07, 1.60, 7.39, repro,
2006-07-28,-0.72, 0.42, 5.08, 2.05, 1.60, 7.37, repro,
2006-07-29,1.28, -2.55, -1.50, 2.07, 1.65, 7.46, repro,
2006-07-30,0.05, -2.14, 3.15, 2.10, 1.67, 7.60, repro,
2006-07-31,-1.00, 0.17, 4.94, 2.05, 1.60, 7.37, repro,
2006-08-01,-0.27, 0.13, 1.07, 2.07, 1.61, 7.43, repro,
2006-08-02,-0.87, 0.55, 3.20, 2.08, 1.66, 7.68, repro,
2006-08-03,0.19, 0.28, 3.53, 2.09, 1.65, 7.63, repro,
2006-08-04,1.13, -1.42, -4.69, 2.14, 1.69, 7.78, repro,
2006-08-05,-1.68, -0.86, 8.23, 2.16, 1.71, 7.90, repro,
2006-08-06,0.48, -1.38, 6.44, 2.13, 1.67, 7.86, repro,
2006-08-07,-0.80, 0.81, -0.72, 2.12, 1.66, 7.76, repro,
2006-08-08,-0.87, 0.95, 6.30, 2.07, 1.61, 7.47, repro,
2006-08-09,-0.02, 0.80, -6.14, 2.10, 1.67, 7.64, repro,
2006-08-10,-0.52, 0.18, 1.01, 2.07, 1.61, 7.42, repro,
2006-08-11,-1.62, -0.06, 3.36, 2.07, 1.61, 7.40, repro,
2006-08-12,0.31, 0.81, 5.82, 2.07, 1.61, 7.41, repro,
2006-08-13,0.28, 1.30, 5.57, 2.05, 1.60, 7.36, repro,
2006-08-14,-2.07, -0.41, 3.22, 2.10, 1.66, 7.56, repro,
2006-08-15,-0.38, 0.37, 2.34, 2.11, 1.63, 7.51, repro,
2006-08-16,-1.14, -1.55, -6.21, 2.05, 1.59, 7.30, repro,
2006-08-17,-0.31, -0.25, -5.16, 2.07, 1.60, 7.40, repro,
2006-08-18,-0.63, 2.26, 4.90, 2.10, 1.64, 7.55, repro,
2006-08-19,-0.87, 1.43, 3.56, 2.06, 1.62, 7.44, repro,
2006-08-20,-1.55, -0.01, 1.30, 2.03, 1.61, 7.32, repro,
2006-08-21,-0.83, 0.49, 4.03, 2.06, 1.64, 7.46, repro,